STARLINK-1774 (46680 NORAD) Tracking and Keplerian Element Data

This shows tracking and keplerian element data for the satellite.

Feedback or suggestion? Click here.




ElementValue
Catalog46680
NameSTARLINK-1774
Epoch Orbit773
Epoch Day338.83334491
Epoch Year2020
RAAN244.4768
Inclination53.0574
Eccentricity0.0001503
Argument of Perigee62.0845
Mean Anonmoly63.1899
Mean Motion15.20857508
Decay Rate-0.01056059
L11 46680U 20073L 20338.83334491 -.01056059 00000-0 -51549-1 0 9990
L22 46680 53.0574 244.4768 0001503 62.0845 63.1899 15.20857508 7733

Live tracking and technical data element details for STARLINK-1774 (NORAD 46680). STARLINK-1774 can be tracked NOW for your location showing map with azimuth and elevation plus other details from your city location.

Track the satellite on the map from your city or location and see movement details for azimuth, elevation, latitude, longitude, range, height, and movement on the map or in text.







IsCatalogInMostPopularTable: catalog: 46680, numindb: 8
Update: records affected: 1



GetName: 46680 STARLINK-1774

Hit Count: updated at: Sat, 05 Dec 2020 05:19:21 GMT